FW0633 Weather Reports


Display with metric or nautical units.
time (UTC)temp
F
wind
direction
speed
MPH
gust
MPH
rain 1hr
in
rain 24hr
in
rain mn
in
humidity
%
barometer
mb
20260901090004 57 262 0.0 1.0 0.00 0.00 0.00 88 1039.6
20260901084524 57 239 0.0 1.0 0.00 0.00 0.00 89 1039.6
20260901083024 57 0 0.0 0.0 0.00 0.00 0.00 88 1039.5
20260901081503 58 0 0.0 0.0 0.00 0.00 0.00 87 1039.6
20260901080024 58 0 0.0 0.0 0.00 0.00 0.00 87 1039.6
20260901074524 58 0 0.0 0.0 0.00 0.00 0.00 87 1039.5
20260901073003 59 0 0.0 0.0 0.00 0.02 0.00 86 1039.6
20260901071503 59 0 0.0 0.0 0.00 0.02 0.00 87 1039.6
20260901070003 60 0 0.0 0.0 0.00 0.02 0.00 85 1039.4
20260901064503 60 238 0.0 1.0 0.00 0.02 0.02 85 1039.5
20260901063004 60 0 0.0 0.0 0.00 0.02 0.02 85 1039.5
20260901061503 60 0 0.0 0.0 0.00 0.02 0.02 85 1039.4
20260901060004 61 239 0.0 1.0 0.00 0.02 0.02 84 1039.4
20260901054503 61 221 0.0 1.0 0.00 0.02 0.02 84 1039.4
20260901053003 62 0 0.0 0.0 0.00 0.02 0.02 84 1039.4
20260901051524 63 0 0.0 0.0 0.00 0.02 0.02 83 1039.3
20260901050024 63 0 0.0 0.0 0.00 0.02 0.02 82 1039.4
20260901044505 64 0 0.0 0.0 0.00 0.02 0.02 80 1039.3
20260901043003 65 160 0.0 3.0 0.00 0.02 0.02 77 1039.2
20260901041506 64 162 0.0 1.0 0.00 0.02 0.02 81 1039.0
20260901040006 65 0 0.0 0.0 0.00 0.02 0.02 80 1038.8
20260901034505 66 0 0.0 0.0 0.00 0.02 0.02 78 1038.7
20260901033006 68 0 0.0 0.0 0.00 0.02 0.02 74 1038.6
20260901031527 68 0 0.0 0.0 0.00 0.02 0.02 73 1038.3
20260901030005 69 99 0.0 1.0 0.00 0.02 0.02 71 1038.2
20260901024506 70 0 0.0 0.0 0.00 0.02 0.02 69 1038.0
20260901023005 70 0 0.0 0.0 0.00 0.02 0.02 69 1037.8
20260901021526 71 131 1.0 3.0 0.00 0.02 0.02 68 1037.8
20260901020007 71 117 1.0 2.0 0.00 0.02 0.02 67 1037.8
20260901014527 71 121 2.0 6.0 0.00 0.02 0.02 67 1037.8
20260901013026 71 118 2.0 5.0 0.00 0.02 0.02 66 1037.8
20260901011506 72 118 2.0 6.0 0.00 0.02 0.02 66 1037.8
20260901010005 72 123 4.0 8.0 0.00 0.02 0.02 65 1037.8
20260901004505 72 123 3.0 6.0 0.00 0.02 0.02 66 1037.9
20260901003006 72 116 3.0 7.0 0.00 0.02 0.02 66 1038.0
20260901001505 73 121 6.0 12.0 0.00 0.02 0.02 65 1037.8
20260901000005 73 110 5.0 12.0 0.00 0.02 0.02 66 1037.9
20260831234505 73 119 5.0 10.0 0.00 0.02 0.02 66 1038.3
20260831233005 73 108 4.0 7.0 0.00 0.02 0.02 65 1038.3
20260831231505 74 100 4.0 9.0 0.00 0.02 0.02 65 1038.4
20260831230005 74 92 3.0 9.0 0.00 0.02 0.02 62 1038.4
20260831224505 74 105 4.0 9.0 0.00 0.02 0.02 62 1038.2
20260831223026 75 101 6.0 10.0 0.00 0.02 0.02 60 1038.1
20260831221505 75 95 6.0 11.0 0.00 0.02 0.02 61 1038.2
20260831220027 75 108 6.0 10.0 0.00 0.02 0.02 60 1038.2
20260831214505 76 113 6.0 16.0 0.00 0.02 0.02 58 1038.4
20260831213005 76 114 6.0 12.0 0.00 0.02 0.02 61 1038.6
20260831211505 76 119 8.0 13.0 0.00 0.02 0.02 61 1038.9
20260831210005 76 99 7.0 13.0 0.00 0.02 0.02 61 1039.1
20260831204526 78 119 5.0 12.0 0.00 0.02 0.02 58 1039.3
20260831203005 83 212 1.0 5.0 0.00 0.02 0.02 49 1039.5
20260831201505 80 186 1.0 4.0 0.00 0.02 0.02 53 1039.6
20260831200026 77 111 4.0 10.0 0.00 0.02 0.02 59 1039.7
20260831194505 75 119 5.0 12.0 0.00 0.02 0.02 63 1040.1
20260831193005 75 114 5.0 9.0 0.00 0.02 0.02 64 1040.3
20260831191505 73 107 6.0 11.0 0.00 0.02 0.02 67 1040.4
20260831190005 73 121 5.0 11.0 0.00 0.02 0.02 67 1040.7
20260831184505 74 111 6.0 12.0 0.00 0.02 0.02 66 1040.7
20260831183025 73 119 6.0 11.0 0.00 0.02 0.02 65 1040.7
20260831181505 73 103 6.0 14.0 0.00 0.02 0.02 66 1040.6
20260831180005 72 114 7.0 13.0 0.00 0.02 0.02 68 1040.6
20260831174504 71 114 7.0 15.0 0.00 0.02 0.02 70 1040.5
20260831173005 70 124 8.0 14.0 0.00 0.02 0.02 72 1040.5
20260831171504 69 127 6.0 14.0 0.00 0.02 0.02 75 1040.4
20260831170025 69 121 4.0 9.0 0.00 0.02 0.02 72 1040.4
20260831164505 69 121 3.0 11.0 0.00 0.02 0.02 72 1040.3
20260831163004 70 129 6.0 14.0 0.00 0.02 0.02 68 1039.9
20260831161504 71 126 8.0 14.0 0.00 0.02 0.02 66 1039.8
20260831160005 69 109 1.0 6.0 0.00 0.02 0.02 65 1039.8
20260831154504 68 116 3.0 8.0 0.00 0.02 0.02 67 1039.8
20260831153026 66 110 1.0 3.0 0.00 0.02 0.02 73 1039.6
20260831151504 65 0 0.0 0.0 0.00 0.02 0.02 76 1039.4
20260831150004 66 91 0.0 1.0 0.00 0.02 0.02 77 1039.4
20260831144504 65 107 1.0 3.0 0.00 0.02 0.02 75 1039.2
20260831143025 63 280 0.0 1.0 0.00 0.02 0.02 77 1039.4
20260831141504 62 294 0.0 1.0 0.00 0.02 0.02 78 1039.4
20260831140005 61 0 0.0 0.0 0.00 0.02 0.02 80 1039.2
20260831134505 60 339 0.0 1.0 0.00 0.02 0.02 81 1039.0
20260831133005 60 0 0.0 0.0 0.00 0.02 0.02 80 1038.8
20260831131505 60 0 0.0 0.0 0.00 0.02 0.02 80 1038.7
20260831130004 60 0 0.0 0.0 0.00 0.02 0.02 80 1038.5
20260831124504 60 340 0.0 1.0 0.00 0.02 0.02 80 1038.3
20260831123004 59 0 0.0 0.0 0.00 0.02 0.02 79 1038.1
20260831121504 59 235 0.0 1.0 0.00 0.02 0.02 79 1037.8
20260831120005 59 260 0.0 1.0 0.00 0.02 0.02 80 1037.6
20260831114505 59 0 0.0 0.0 0.00 0.02 0.02 80 1037.7
20260831113004 59 230 0.0 1.0 0.00 0.02 0.02 81 1037.6
20260831111504 60 0 0.0 0.0 0.00 0.02 0.02 81 1037.8
20260831110004 60 0 0.0 0.0 0.00 0.02 0.02 81 1037.9
20260831104504 60 249 0.0 1.0 0.00 0.02 0.02 81 1038.1
20260831103005 60 0 0.0 0.0 0.00 0.02 0.02 80 1038.2
20260831101504 61 0 0.0 0.0 0.00 0.02 0.02 79 1038.4
20260831100004 62 0 0.0 0.0 0.00 0.02 0.02 77 1038.4
20260831094503 63 0 0.0 0.0 0.00 0.02 0.02 75 1038.6
20260831093004 65 45 0.0 1.0 0.00 0.02 0.02 70 1039.1
20260831091525 65 98 1.0 4.0 0.00 0.02 0.02 68 1039.3